When you browse on this site, cookies collect data to enhance your experience and personalize the content and advertising you see.
Visit our Privacy Policy to learn more. By continuing to use the site, you agree to this use of cookies and data.
  • în România
  • Lista ţărilor
  • Pe 7 zile
  • Temperatura apei
  • Meteo pe hartă
  • Widget-uri
  • user-avatar
    Intrare

    Meteo pe oră la Ploieşti

    Astăzi, 24 Ianuarie, Vineri

    Timp Temperatura Precipitaţii Vânt Presiune Umiditate
    00:00 +1°C° 0 mm 1 m/s 760 mmHg 59%
    01:00 +1°C° 0 mm 1 m/s 760 mmHg 60%
    02:00 -2°C° 0 mm 2 m/s 760 mmHg 60%
    03:00 0°C° 0 mm 1 m/s 760 mmHg 61%
    04:00 0°C° 0 mm 1 m/s 759 mmHg 61%
    05:00 0°C° 0 mm 1 m/s 759 mmHg 61%
    06:00 0°C° 0 mm 1 m/s 759 mmHg 61%
    07:00 0°C° 0 mm 1 m/s 759 mmHg 61%
    08:00 0°C° 0 mm 1 m/s 759 mmHg 61%
    09:00 +1°C° 0 mm 1 m/s 758 mmHg 55%
    10:00 +1°C° 0 mm 2 m/s 758 mmHg 50%
    11:00 +3°C° 0 mm 2 m/s 758 mmHg 44%
    12:00 +3°C° 0 mm 3 m/s 757 mmHg 41%
    13:00 +4°C° 0 mm 3 m/s 756 mmHg 38%
    14:00 +5°C° 0 mm 4 m/s 756 mmHg 36%
    15:00 +4°C° 0 mm 4 m/s 755 mmHg 40%
    16:00 +3°C° 0 mm 3 m/s 755 mmHg 43%
    17:00 +2°C° 0 mm 3 m/s 755 mmHg 47%
    18:00 +2°C° 0 mm 3 m/s 754 mmHg 49%
    19:00 +1°C° 0 mm 3 m/s 754 mmHg 51%
    20:00 +1°C° 0 mm 3 m/s 754 mmHg 53%
    21:00 +1°C° 0 mm 3 m/s 754 mmHg 52%
    22:00 0°C° 0 mm 3 m/s 753 mmHg 52%
    23:00 0°C° 0 mm 3 m/s 753 mmHg 51%

    Mâine, 25 Ianuarie, Sâmbătă

    Timp Temperatura Precipitaţii Vânt Presiune Umiditate
    00:00 0°C° 0 mm 3 m/s 753 mmHg 51%
    01:00 0°C° 0 mm 3 m/s 752 mmHg 50%
    02:00 0°C° 0 mm 3 m/s 752 mmHg 50%
    03:00 0°C° 0 mm 3 m/s 752 mmHg 51%
    04:00 0°C° 0 mm 3 m/s 752 mmHg 51%
    05:00 -1°C° 0 mm 3 m/s 751 mmHg 52%
    06:00 -1°C° 0 mm 2 m/s 751 mmHg 52%
    07:00 +1°C° 0 mm 2 m/s 751 mmHg 52%
    08:00 +1°C° 0 mm 2 m/s 751 mmHg 52%
    09:00 +2°C° 0 mm 2 m/s 752 mmHg 47%
    10:00 +5°C° 0 mm 1 m/s 752 mmHg 42%
    11:00 +7°C° 0 mm 1 m/s 752 mmHg 37%
    12:00 +8°C° 0 mm 1 m/s 752 mmHg 36%
    13:00 +9°C° 0 mm 1 m/s 751 mmHg 35%
    14:00 +9°C° 0 mm 1 m/s 751 mmHg 34%
    15:00 +8°C° 0 mm 1 m/s 751 mmHg 38%
    16:00 +6°C° 0 mm 0 m/s 751 mmHg 42%
    17:00 +5°C° 0 mm 0 m/s 751 mmHg 46%
    18:00 +6°C° 0 mm 1 m/s 751 mmHg 48%
    19:00 +5°C° 0 mm 1 m/s 751 mmHg 50%
    20:00 +5°C° 0 mm 1 m/s 752 mmHg 52%
    21:00 +5°C° 0 mm 1 m/s 752 mmHg 55%
    22:00 +5°C° 0 mm 1 m/s 752 mmHg 59%
    23:00 +5°C° 0 mm 1 m/s 752 mmHg 62%

    Poimâine, 26 Ianuarie, Duminică

    Timp Temperatura Precipitaţii Vânt Presiune Umiditate
    00:00 +5°C° 0 mm 1 m/s 752 mmHg 64%
    01:00 +4°C° 0 mm 1 m/s 752 mmHg 67%
    02:00 +4°C° 0 mm 1 m/s 752 mmHg 69%
    03:00 +4°C° 0 mm 1 m/s 752 mmHg 71%
    04:00 +4°C° 0 mm 1 m/s 752 mmHg 73%
    05:00 +3°C° 0 mm 1 m/s 752 mmHg 75%
    06:00 +3°C° 0 mm 1 m/s 752 mmHg 75%
    07:00 +3°C° 0 mm 1 m/s 753 mmHg 75%
    08:00 +3°C° 0 mm 1 m/s 753 mmHg 76%
    09:00 +4°C° 0 mm 1 m/s 753 mmHg 69%
    10:00 +6°C° 0 mm 1 m/s 753 mmHg 61%
    11:00 +6°C° 0 mm 2 m/s 754 mmHg 54%
    12:00 +7°C° 0 mm 2 m/s 753 mmHg 50%
    13:00 +7°C° 0 mm 2 m/s 753 mmHg 46%
    14:00 +8°C° 0 mm 2 m/s 753 mmHg 42%
    15:00 +7°C° 0 mm 2 m/s 753 mmHg 45%
    16:00 +8°C° 0 mm 1 m/s 752 mmHg 47%
    17:00 +7°C° 0 mm 1 m/s 752 mmHg 49%
    18:00 +6°C° 0 mm 1 m/s 752 mmHg 51%
    19:00 +5°C° 0 mm 1 m/s 752 mmHg 53%
    20:00 +5°C° 0 mm 1 m/s 752 mmHg 55%
    21:00 +4°C° 0 mm 1 m/s 752 mmHg 57%
    22:00 +4°C° 0 mm 1 m/s 752 mmHg 58%
    23:00 +4°C° 0 mm 1 m/s 752 mmHg 59%

    27 Ianuarie, Luni

    Timp Temperatura Precipitaţii Vânt Presiune Umiditate
    00:00 +4°C° 0 mm 1 m/s 752 mmHg 61%
    01:00 +4°C° 0 mm 1 m/s 752 mmHg 62%
    02:00 +4°C° 0 mm 1 m/s 751 mmHg 64%
    03:00 +3°C° 0 mm 1 m/s 751 mmHg 65%
    04:00 +3°C° 0 mm 1 m/s 751 mmHg 66%
    05:00 +3°C° 0 mm 1 m/s 750 mmHg 68%
    06:00 +3°C° 0 mm 1 m/s 750 mmHg 69%
    07:00 +3°C° 0 mm 1 m/s 750 mmHg 71%
    08:00 +3°C° 0 mm 1 m/s 750 mmHg 72%
    09:00 +4°C° 0 mm 1 m/s 750 mmHg 67%
    10:00 +6°C° 0 mm 1 m/s 750 mmHg 62%
    11:00 +7°C° 0 mm 1 m/s 750 mmHg 57%
    12:00 +8°C° 0 mm 1 m/s 749 mmHg 55%
    13:00 +7°C° 0 mm 0 m/s 749 mmHg 53%
    14:00 +8°C° 0 mm 0 m/s 748 mmHg 50%
    15:00 +7°C° 0 mm 0 m/s 748 mmHg 54%
    16:00 +7°C° 0 mm 0 m/s 748 mmHg 57%
    17:00 +6°C° 0 mm 0 m/s 748 mmHg 60%
    18:00 +6°C° 0 mm 0 m/s 748 mmHg 61%
    19:00 +5°C° 0 mm 0 m/s 748 mmHg 63%
    20:00 +5°C° 0 mm 0 m/s 748 mmHg 64%
    21:00 +5°C° 0 mm 0 m/s 748 mmHg 64%
    22:00 +6°C° 0 mm 1 m/s 748 mmHg 64%
    23:00 +6°C° 0 mm 1 m/s 748 mmHg 64%

    28 Ianuarie, Marţi

    Timp Temperatura Precipitaţii Vânt Presiune Umiditate
    00:00 +6°C° 0 mm 1 m/s 747 mmHg 66%
    01:00 +6°C° 0 mm 1 m/s 747 mmHg 68%
    02:00 +6°C° 0 mm 1 m/s 747 mmHg 70%
    03:00 +5°C° 0 mm 1 m/s 746 mmHg 73%
    04:00 +5°C° 0 mm 1 m/s 746 mmHg 75%
    05:00 +5°C° 0 mm 1 m/s 746 mmHg 78%
    06:00 +5°C° 0 mm 1 m/s 746 mmHg 79%
    07:00 +4°C° 0 mm 1 m/s 746 mmHg 80%
    08:00 +4°C° 0 mm 1 m/s 746 mmHg 81%
    09:00 +6°C° 0 mm 1 m/s 746 mmHg 74%
    10:00 +6°C° 0 mm 0 m/s 746 mmHg 68%
    11:00 +8°C° 0 mm 0 m/s 746 mmHg 61%
    12:00 +10°C° 0 mm 1 m/s 745 mmHg 59%
    13:00 +9°C° 0 mm 2 m/s 745 mmHg 57%
    14:00 +10°C° 0 mm 2 m/s 745 mmHg 55%
    15:00 +10°C° 0 mm 2 m/s 744 mmHg 58%
    16:00 +9°C° 0 mm 2 m/s 744 mmHg 62%
    17:00 +8°C° 0 mm 2 m/s 744 mmHg 65%
    18:00 +8°C° 0 mm 2 m/s 744 mmHg 69%
    19:00 +7°C° 0 mm 2 m/s 744 mmHg 72%
    20:00 +6°C° 0 mm 2 m/s 745 mmHg 76%
    21:00 +5°C° 0 mm 3 m/s 745 mmHg 77%
    22:00 +5°C° 0 mm 3 m/s 744 mmHg 79%
    23:00 +4°C° 0 mm 3 m/s 744 mmHg 80%

    29 Ianuarie, Miercuri

    Timp Temperatura Precipitaţii Vânt Presiune Umiditate
    00:00 +4°C° 0 mm 3 m/s 744 mmHg 80%
    01:00 +4°C° 0 mm 3 m/s 744 mmHg 81%
    02:00 +4°C° 0 mm 3 m/s 744 mmHg 81%
    03:00 +3°C° 0 mm 3 m/s 744 mmHg 81%
    04:00 +3°C° 0 mm 3 m/s 743 mmHg 81%
    05:00 +3°C° 0 mm 3 m/s 743 mmHg 82%
    06:00 +4°C° 0 mm 3 m/s 743 mmHg 82%
    07:00 +4°C° 0 mm 4 m/s 743 mmHg 82%
    08:00 +4°C° 0 mm 4 m/s 743 mmHg 82%
    09:00 +5°C° 0 mm 5 m/s 744 mmHg 77%
    10:00 +7°C° 0 mm 5 m/s 744 mmHg 72%
    11:00 +8°C° 0 mm 5 m/s 744 mmHg 67%
    12:00 +9°C° 0 mm 5 m/s 744 mmHg 64%
    13:00 +10°C° 0 mm 5 m/s 744 mmHg 61%
    14:00 +12°C° 0 mm 4 m/s 744 mmHg 57%
    15:00 +11°C° 0 mm 4 m/s 744 mmHg 59%
    16:00 +10°C° 0 mm 3 m/s 744 mmHg 61%
    17:00 +10°C° 0 mm 2 m/s 744 mmHg 63%
    18:00 +9°C° 0 mm 3 m/s 744 mmHg 65%
    19:00 +8°C° 0 mm 3 m/s 744 mmHg 67%
    20:00 +7°C° 0 mm 3 m/s 744 mmHg 69%
    21:00 +7°C° 0 mm 3 m/s 744 mmHg 68%
    22:00 +6°C° 0 mm 4 m/s 744 mmHg 67%
    23:00 +6°C° 0 mm 4 m/s 744 mmHg 66%
    Arată mai mult